Rouyn Airport, Quebec

3:20 AM ADT on June 27, 2017 (GMT -0300)
Rouyn Airport

Weather History for CYUY - January, 2014

Change the Weather History Date:

Wednesday, January 8, 2014

  Actual Average Record
Temperature  
Mean Temperature -4 °F -  
Max Temperature 6 °F - - ()
Min Temperature -14 °F - - ()
Degree Days  
Heating Degree Days 69    
Moisture  
Dew Point -9 °F    
Average Humidity 75    
Maximum Humidity 85    
Minimum Humidity 61    
Precipitation  
Precipitation 0.00 in - - ()
Sea Level Pressure  
Sea Level Pressure 30.09 in    
Wind  
Wind Speed 9 mph ()    
Max Wind Speed 17 mph    
Max Gust Speed 22 mph    
Visibility 12.8 miles    
Events Snow    
T = Trace of Precipitation, MM = Missing Value Source: Averaged Metar Reports

Daily Weather History Graph

Daily Weather History Graph

Search for Another Location

Airport or City:

Trip Planner

Search our weather history database for the weather conditions in past years. The results will help you decide how hot, cold, wet, or windy it might be!

Date:

Astronomy

Jan. 08, 2014 Rise Set
Actual Time 9:04 AM AST 5:39 PM AST
Civil Twilight 8:28 AM AST 6:15 PM AST
Nautical Twilight 7:49 AM AST 6:54 PM AST
Astronomical Twilight 7:11 AM AST 7:32 PM AST
Moon 12:46 PM AST (1/8) 1:51 AM AST (1/8)
Length of Visible Light 9h 46m
Length of Day
8h 35m
First Quarter, 55% of the Moon is Illuminated
Jan 8
First Quarter
Jan 16
Full
Jan 24
Last Quarter
Jan 30
New
Feb 6
First Quarter

Hourly Weather History & Observations

Time (AST) Temp. Windchill Dew Point Humidity Pressure Visibility Wind Dir Wind Speed Gust Speed Precip Events Conditions
12:00 AM -13.0 °F -31.3 °F -18.4 °F 77% 29.86 in 15.0 mi WSW 9.2 mph - N/A   Partly Cloudy
1:00 AM -13.0 °F -33.4 °F -18.4 °F 77% 29.88 in 15.0 mi WSW 11.5 mph - N/A   Partly Cloudy
2:00 AM -13.0 °F -34.3 °F -18.4 °F 77% 29.91 in 15.0 mi WSW 12.7 mph - N/A   Partly Cloudy
3:00 AM -11.2 °F -30.1 °F -16.6 °F 77% 29.95 in 15.0 mi WSW 10.4 mph - N/A   Clear
4:00 AM -11.2 °F -27.8 °F -16.6 °F 77% 29.99 in 15.0 mi WSW 8.1 mph - N/A   Clear
5:00 AM -11.2 °F -30.1 °F -16.6 °F 77% 30.01 in 15.0 mi WSW 10.4 mph - N/A   Clear
6:00 AM -14.8 °F -32.2 °F -18.4 °F 84% 30.04 in 15.0 mi WSW 8.1 mph - N/A   Clear
7:00 AM -11.2 °F -30.1 °F -16.6 °F 77% 30.06 in 15.0 mi WSW 10.4 mph - N/A   Partly Cloudy
8:00 AM -11.2 °F -29.0 °F -16.6 °F 77% 30.07 in 15.0 mi WSW 9.2 mph - N/A   Scattered Clouds
9:00 AM -11.2 °F -31.1 °F -16.6 °F 77% 30.09 in 15.0 mi West 11.5 mph - N/A   Mostly Cloudy
10:00 AM -11.2 °F -27.8 °F -16.6 °F 77% 30.12 in 15.0 mi WSW 8.1 mph - N/A   Mostly Cloudy
11:00 AM -7.6 °F -27.5 °F -13.0 °F 77% 30.13 in 15.0 mi WSW 12.7 mph - N/A   Mostly Cloudy
12:00 PM -2.2 °F -16.8 °F -9.4 °F 71% 30.14 in 15.0 mi WSW 8.1 mph - N/A   Mostly Cloudy
1:00 PM 3.2 °F -15.3 °F -7.6 °F 61% 30.12 in 15.0 mi WSW 15.0 mph 20.7 mph N/A   Mostly Cloudy
2:00 PM 5.0 °F -13.0 °F -5.8 °F 61% 30.11 in 15.0 mi WSW 15.0 mph - N/A   Scattered Clouds
3:00 PM 5.0 °F -14.2 °F -4.0 °F 66% 30.11 in 15.0 mi WSW 17.3 mph - N/A   Scattered Clouds
4:00 PM 6.8 °F -10.7 °F -4.0 °F 61% 30.12 in 15.0 mi WSW 15.0 mph 21.9 mph N/A   Partly Cloudy
5:00 PM 6.8 °F -10.0 °F -4.0 °F 61% 30.13 in 15.0 mi WSW 13.8 mph - N/A   Partly Cloudy
6:00 PM 5.0 °F -8.1 °F -4.0 °F 66% 30.14 in 15.0 mi SSW 8.1 mph - N/A   Partly Cloudy
7:00 PM 3.2 °F -13.1 °F -2.2 °F 78% 30.16 in 15.0 mi SW 11.5 mph - N/A   Scattered Clouds
8:00 PM 3.2 °F -11.3 °F -0.4 °F 85% 30.17 in 15.0 mi SW 9.2 mph - N/A Snow Light Snow
9:00 PM 3.2 °F -10.3 °F -0.4 °F 85% 30.19 in 3.0 mi NNW 8.1 mph - N/A Snow Light Snow
9:13 PM 3.2 °F -6.2 °F -0.4 °F 85% 30.20 in 1.5 mi WNW 4.6 mph - N/A Snow Light Snow
10:00 PM 6.8 °F -3.5 °F 1.4 °F 79% 30.22 in 2.0 mi WNW 5.8 mph - N/A Snow Light Snow
10:35 PM 5.0 °F -10.0 °F 1.4 °F 85% 30.24 in 3.0 mi NNW 10.4 mph - N/A Snow Light Snow
11:00 PM 1.4 °F -13.5 °F -4.0 °F 78% 30.27 in 8.0 mi NW 9.2 mph 20.7 mph N/A Snow Light Snow